Time,TemperatureF,DewpointF,PressureIn,WindDirection,WindDirectionDegrees,WindSpeedMPH,WindSpeedGustMPH,Humidity,HourlyPrecipIn,Conditions,Clouds,dailyrainin,SoftwareType,DateUTC
2013-02-24 00:06:00,-1.0,-4.0,29.42,SE,133,0.0,0.0,85,0.00,,,0.00,weatherlink.com 1.10,2013-02-24 09:06:00,
2013-02-24 00:21:00,-1.0,-5.0,29.42,SE,133,0.0,0.0,84,0.00,,,0.00,weatherlink.com 1.10,2013-02-24 09:21:00,
2013-02-24 00:36:00,-1.3,-5.0,29.42,SE,133,0.0,0.0,85,0.00,,,0.00,weatherlink.com 1.10,2013-02-24 09:36:00,
2013-02-24 00:51:00,-1.6,-6.0,29.42,SE,133,0.0,0.0,83,0.00,,,0.00,weatherlink.com 1.10,2013-02-24 09:51:00,
2013-02-24 01:07:00,-1.6,-5.0,29.42,SE,133,0.0,0.0,85,0.00,,,0.00,weatherlink.com 1.10,2013-02-24 10:07:00,
2013-02-24 01:22:00,-1.5,-5.0,29.43,SE,133,0.0,0.0,83,0.00,,,0.00,weatherlink.com 1.10,2013-02-24 10:22:00,
2013-02-24 01:37:00,-1.8,-5.0,29.43,SE,133,0.0,0.0,86,0.00,,,0.00,weatherlink.com 1.10,2013-02-24 10:37:00,
2013-02-24 01:52:00,-1.6,-5.0,29.44,SE,133,0.0,0.0,85,0.00,,,0.00,weatherlink.com 1.10,2013-02-24 10:52:00,
2013-02-24 02:07:00,-1.9,-6.0,29.45,SE,133,0.0,0.0,84,0.00,,,0.00,weatherlink.com 1.10,2013-02-24 11:07:00,
2013-02-24 02:22:00,-2.0,-6.0,29.46,SE,133,0.0,0.0,84,0.00,,,0.00,weatherlink.com 1.10,2013-02-24 11:22:00,
2013-02-24 02:37:00,-1.8,-6.0,29.46,SE,133,0.0,0.0,84,0.00,,,0.00,weatherlink.com 1.10,2013-02-24 11:37:00,
2013-02-24 02:52:00,-2.8,-7.0,29.46,SE,133,0.0,0.0,83,0.00,,,0.00,weatherlink.com 1.10,2013-02-24 11:52:00,
2013-02-24 03:07:00,-2.7,-7.0,29.46,SE,133,0.0,0.0,83,0.00,,,0.00,weatherlink.com 1.10,2013-02-24 12:07:00,
2013-02-24 03:22:00,-3.2,-7.0,29.46,SE,133,0.0,0.0,82,0.00,,,0.00,weatherlink.com 1.10,2013-02-24 12:22:00,
2013-02-24 03:37:00,-3.4,-7.0,29.46,SE,133,0.0,0.0,84,0.00,,,0.00,weatherlink.com 1.10,2013-02-24 12:37:00,
2013-02-24 03:52:00,-2.8,-6.0,29.46,SE,133,0.0,0.0,86,0.00,,,0.00,weatherlink.com 1.10,2013-02-24 12:52:00,
2013-02-24 04:07:00,-2.0,-5.0,29.46,SE,133,0.0,0.0,85,0.00,,,0.00,weatherlink.com 1.10,2013-02-24 13:07:00,
2013-02-24 04:22:00,-3.2,-7.0,29.47,SE,133,0.0,0.0,83,0.00,,,0.00,weatherlink.com 1.10,2013-02-24 13:22:00,
2013-02-24 04:38:00,-3.5,-7.0,29.48,SE,133,0.0,0.0,83,0.00,,,0.00,weatherlink.com 1.10,2013-02-24 13:38:00,
2013-02-24 04:53:00,-3.4,-7.0,29.48,SE,133,0.0,0.0,85,0.00,,,0.00,weatherlink.com 1.10,2013-02-24 13:53:00,
2013-02-24 05:08:00,-3.7,-7.0,29.48,SE,133,0.0,0.0,84,0.00,,,0.00,weatherlink.com 1.10,2013-02-24 14:08:00,
2013-02-24 05:23:00,-4.1,-8.0,29.48,SE,133,0.0,0.0,83,0.00,,,0.00,weatherlink.com 1.10,2013-02-24 14:23:00,
2013-02-24 05:38:00,-4.5,-9.0,29.49,SE,133,0.0,0.0,82,0.00,,,0.00,weatherlink.com 1.10,2013-02-24 14:38:00,
2013-02-24 05:53:00,-4.9,-9.0,29.50,SE,133,0.0,0.0,83,0.00,,,0.00,weatherlink.com 1.10,2013-02-24 14:53:00,
2013-02-24 06:08:00,-5.1,-9.0,29.51,SE,133,0.0,0.0,83,0.00,,,0.00,weatherlink.com 1.10,2013-02-24 15:08:00,
2013-02-24 06:23:00,-5.5,-9.0,29.51,SE,133,0.0,0.0,83,0.00,,,0.00,weatherlink.com 1.10,2013-02-24 15:23:00,
2013-02-24 06:38:00,-5.8,-10.0,29.52,SE,133,0.0,0.0,83,0.00,,,0.00,weatherlink.com 1.10,2013-02-24 15:38:00,
2013-02-24 06:53:00,-6.0,-10.0,29.52,SE,137,0.0,0.0,83,0.00,,,0.00,weatherlink.com 1.10,2013-02-24 15:53:00,
2013-02-24 07:08:00,-6.3,-10.0,29.52,SE,137,0.0,0.0,82,0.00,,,0.00,weatherlink.com 1.10,2013-02-24 16:08:00,
2013-02-24 07:23:00,-6.3,-10.0,29.53,SE,137,0.0,0.0,84,0.00,,,0.00,weatherlink.com 1.10,2013-02-24 16:23:00,
2013-02-24 07:38:00,-6.6,-11.0,29.54,SE,137,0.0,0.0,82,0.00,,,0.00,weatherlink.com 1.10,2013-02-24 16:38:00,
2013-02-24 07:54:00,-6.7,-11.0,29.55,SE,137,0.0,0.0,83,0.00,,,0.00,weatherlink.com 1.10,2013-02-24 16:54:00,
2013-02-24 08:09:00,-7.4,-12.0,29.55,SE,137,0.0,0.0,82,0.00,,,0.00,weatherlink.com 1.10,2013-02-24 17:09:00,
2013-02-24 08:24:00,-7.8,-12.0,29.55,SE,137,0.0,0.0,81,0.00,,,0.00,weatherlink.com 1.10,2013-02-24 17:24:00,
2013-02-24 08:39:00,-8.4,-13.0,29.56,SE,137,0.0,0.0,82,0.00,,,0.00,weatherlink.com 1.10,2013-02-24 17:39:00,
2013-02-24 08:54:00,-8.3,-12.0,29.56,SE,137,0.0,0.0,82,0.00,,,0.00,weatherlink.com 1.10,2013-02-24 17:54:00,
2013-02-24 09:09:00,-9.4,-14.0,29.57,SE,139,0.0,0.0,79,0.00,,,0.00,weatherlink.com 1.10,2013-02-24 18:09:00,
2013-02-24 09:24:00,-10.4,-15.0,29.57,SE,138,0.0,0.0,80,0.00,,,0.00,weatherlink.com 1.10,2013-02-24 18:24:00,
2013-02-24 09:39:00,-10.3,-15.0,29.58,SE,138,0.0,0.0,80,0.00,,,0.00,weatherlink.com 1.10,2013-02-24 18:39:00,
2013-02-24 09:54:00,-10.0,-14.0,29.59,SSE,161,0.0,0.0,81,0.00,,,0.00,weatherlink.com 1.10,2013-02-24 18:54:00,
2013-02-24 10:10:00,-10.9,-15.0,29.59,SSE,160,0.0,0.0,80,0.00,,,0.00,weatherlink.com 1.10,2013-02-24 19:10:00,
2013-02-24 10:24:00,-9.6,-14.0,29.60,SE,124,0.0,1.0,80,0.00,,,0.00,weatherlink.com 1.10,2013-02-24 19:24:00,
2013-02-24 10:39:00,-8.1,-13.0,29.60,SE,134,0.0,1.0,80,0.00,,,0.00,weatherlink.com 1.10,2013-02-24 19:39:00,
2013-02-24 10:54:00,-6.8,-11.0,29.60,South,186,0.0,0.0,82,0.00,,,0.00,weatherlink.com 1.10,2013-02-24 19:54:00,
2013-02-24 11:09:00,-5.9,-11.0,29.61,South,186,0.0,0.0,79,0.00,,,0.00,weatherlink.com 1.10,2013-02-24 20:09:00,
2013-02-24 11:25:00,-4.8,-10.0,29.61,South,173,0.0,0.0,78,0.00,,,0.00,weatherlink.com 1.10,2013-02-24 20:25:00,
2013-02-24 11:40:00,-2.8,-9.0,29.62,SE,125,0.0,1.0,76,0.00,,,0.00,weatherlink.com 1.10,2013-02-24 20:40:00,
2013-02-24 11:55:00,-1.7,-8.0,29.62,SE,144,0.0,1.0,74,0.00,,,0.00,weatherlink.com 1.10,2013-02-24 20:55:00,
2013-02-24 12:10:00,1.3,-6.0,29.62,SSE,157,0.0,1.0,72,0.00,,,0.00,weatherlink.com 1.10,2013-02-24 21:10:00,
2013-02-24 12:25:00,1.4,-6.0,29.63,South,181,0.0,1.0,71,0.00,,,0.00,weatherlink.com 1.10,2013-02-24 21:25:00,
2013-02-24 12:40:00,1.1,-7.0,29.63,SSE,162,0.0,1.0,70,0.00,,,0.00,weatherlink.com 1.10,2013-02-24 21:40:00,
2013-02-24 12:55:00,0.2,-7.0,29.63,West,278,0.0,1.0,71,0.00,,,0.00,weatherlink.com 1.10,2013-02-24 21:55:00,
2013-02-24 13:10:00,0.9,-6.0,29.64,WNW,288,0.0,1.0,71,0.00,,,0.00,weatherlink.com 1.10,2013-02-24 22:10:00,
2013-02-24 13:25:00,2.0,-6.0,29.64,ESE,122,0.0,1.0,70,0.00,,,0.00,weatherlink.com 1.10,2013-02-24 22:25:00,
2013-02-24 13:40:00,3.2,-5.0,29.63,SSE,167,0.0,0.0,68,0.00,,,0.00,weatherlink.com 1.10,2013-02-24 22:40:00,
2013-02-24 13:55:00,2.5,-6.0,29.63,SSE,166,0.0,0.0,69,0.00,,,0.00,weatherlink.com 1.10,2013-02-24 22:55:00,
2013-02-24 14:10:00,2.2,-6.0,29.63,SSW,192,0.0,1.0,70,0.00,,,0.00,weatherlink.com 1.10,2013-02-24 23:10:00,
2013-02-24 14:25:00,3.7,-4.0,29.64,SE,140,0.0,1.0,69,0.00,,,0.00,weatherlink.com 1.10,2013-02-24 23:25:00,
2013-02-24 14:40:00,4.6,-4.0,29.64,SSW,211,0.0,1.0,68,0.00,,,0.00,weatherlink.com 1.10,2013-02-24 23:40:00,
2013-02-24 14:56:00,5.1,-3.0,29.64,West,278,1.0,1.0,68,0.00,,,0.00,weatherlink.com 1.10,2013-02-24 23:56:00,
2013-02-24 15:11:00,4.9,-4.0,29.65,WNW,283,0.0,0.0,68,0.00,,,0.00,weatherlink.com 1.10,2013-02-25 00:11:00,
2013-02-24 15:26:00,4.7,-4.0,29.65,West,279,0.0,1.0,68,0.00,,,0.00,weatherlink.com 1.10,2013-02-25 00:26:00,
2013-02-24 15:41:00,4.6,-4.0,29.65,WNW,288,0.0,1.0,68,0.00,,,0.00,weatherlink.com 1.10,2013-02-25 00:41:00,
2013-02-24 15:56:00,4.3,-4.0,29.66,SSE,165,0.0,1.0,68,0.00,,,0.00,weatherlink.com 1.10,2013-02-25 00:56:00,
2013-02-24 16:11:00,3.9,-4.0,29.66,WNW,286,0.0,1.0,69,0.00,,,0.00,weatherlink.com 1.10,2013-02-25 01:11:00,
2013-02-24 16:26:00,3.6,-4.0,29.66,WNW,286,0.0,0.0,70,0.00,,,0.00,weatherlink.com 1.10,2013-02-25 01:26:00,
2013-02-24 16:41:00,3.0,-5.0,29.67,SSE,155,0.0,0.0,69,0.00,,,0.00,weatherlink.com 1.10,2013-02-25 01:41:00,
2013-02-24 16:56:00,1.9,-5.0,29.67,SSE,156,0.0,0.0,72,0.00,,,0.00,weatherlink.com 1.10,2013-02-25 01:56:00,
2013-02-24 17:11:00,0.7,-6.0,29.68,SSE,156,0.0,0.0,74,0.00,,,0.00,weatherlink.com 1.10,2013-02-25 02:11:00,
2013-02-24 17:26:00,-0.4,-7.0,29.68,SW,234,0.0,0.0,74,0.00,,,0.00,weatherlink.com 1.10,2013-02-25 02:26:00,
2013-02-24 17:41:00,-1.8,-8.0,29.69,SW,234,0.0,0.0,76,0.00,,,0.00,weatherlink.com 1.10,2013-02-25 02:41:00,
2013-02-24 17:56:00,-2.8,-9.0,29.70,SW,234,0.0,0.0,76,0.00,,,0.00,weatherlink.com 1.10,2013-02-25 02:56:00,
2013-02-24 18:12:00,-3.8,-9.0,29.70,SW,234,0.0,0.0,77,0.00,,,0.00,weatherlink.com 1.10,2013-02-25 03:12:00,
2013-02-24 18:27:00,-5.0,-10.0,29.70,SW,234,0.0,0.0,79,0.00,,,0.00,weatherlink.com 1.10,2013-02-25 03:27:00,
2013-02-24 18:42:00,-5.8,-11.0,29.70,SW,234,0.0,0.0,79,0.00,,,0.00,weatherlink.com 1.10,2013-02-25 03:42:00,
2013-02-24 18:57:00,-5.8,-11.0,29.70,SW,234,0.0,0.0,79,0.00,,,0.00,weatherlink.com 1.10,2013-02-25 03:57:00,
2013-02-24 19:12:00,-6.3,-11.0,29.71,SW,234,0.0,0.0,80,0.00,,,0.00,weatherlink.com 1.10,2013-02-25 04:12:00,
2013-02-24 19:27:00,-6.5,-11.0,29.72,SW,234,0.0,0.0,81,0.00,,,0.00,weatherlink.com 1.10,2013-02-25 04:27:00,
2013-02-24 19:42:00,-6.3,-11.0,29.72,SW,234,0.0,0.0,81,0.00,,,0.00,weatherlink.com 1.10,2013-02-25 04:42:00,
2013-02-24 19:57:00,-6.1,-10.0,29.72,SW,234,0.0,0.0,82,0.00,,,0.00,weatherlink.com 1.10,2013-02-25 04:57:00,
2013-02-24 20:12:00,-5.8,-9.0,29.73,SW,234,0.0,0.0,85,0.00,,,0.00,weatherlink.com 1.10,2013-02-25 05:12:00,
2013-02-24 20:27:00,-5.6,-10.0,29.73,SW,234,0.0,0.0,83,0.00,,,0.00,weatherlink.com 1.10,2013-02-25 05:27:00,
2013-02-24 20:42:00,-5.2,-9.0,29.73,SW,234,0.0,0.0,83,0.00,,,0.00,weatherlink.com 1.10,2013-02-25 05:42:00,
2013-02-24 20:57:00,-4.8,-9.0,29.73,SW,234,0.0,0.0,83,0.00,,,0.00,weatherlink.com 1.10,2013-02-25 05:57:00,
2013-02-24 21:12:00,-5.0,-9.0,29.73,SW,234,0.0,0.0,82,0.00,,,0.00,weatherlink.com 1.10,2013-02-25 06:12:00,
2013-02-24 21:27:00,-5.0,-9.0,29.74,SW,234,0.0,0.0,82,0.00,,,0.00,weatherlink.com 1.10,2013-02-25 06:27:00,
2013-02-24 21:43:00,-4.8,-9.0,29.74,SW,234,0.0,0.0,83,0.00,,,0.00,weatherlink.com 1.10,2013-02-25 06:43:00,
2013-02-24 21:58:00,-5.0,-9.0,29.73,SW,234,0.0,0.0,83,0.00,,,0.00,weatherlink.com 1.10,2013-02-25 06:58:00,
2013-02-24 22:13:00,-4.8,-9.0,29.74,SW,234,0.0,0.0,82,0.00,,,0.00,weatherlink.com 1.10,2013-02-25 07:13:00,
2013-02-24 22:28:00,-5.0,-9.0,29.74,SW,234,0.0,0.0,83,0.00,,,0.00,weatherlink.com 1.10,2013-02-25 07:28:00,
2013-02-24 22:43:00,-5.3,-9.0,29.75,SW,234,0.0,0.0,83,0.00,,,0.00,weatherlink.com 1.10,2013-02-25 07:43:00,
2013-02-24 22:58:00,-5.6,-10.0,29.75,SW,234,0.0,0.0,82,0.00,,,0.00,weatherlink.com 1.10,2013-02-25 07:58:00,
2013-02-24 23:13:00,-6.0,-10.0,29.75,SW,234,0.0,0.0,83,0.00,,,0.00,weatherlink.com 1.10,2013-02-25 08:13:00,
2013-02-24 23:28:00,-5.8,-10.0,29.75,SW,234,0.0,0.0,82,0.00,,,0.00,weatherlink.com 1.10,2013-02-25 08:28:00,
2013-02-24 23:43:00,-5.3,-9.0,29.75,SW,234,0.0,0.0,83,0.00,,,0.00,weatherlink.com 1.10,2013-02-25 08:43:00,
2013-02-24 23:58:00,-5.1,-9.0,29.76,SW,234,0.0,0.0,84,0.00,,,0.00,weatherlink.com 1.10,2013-02-25 08:58:00,